Location: Sandy Point Observatory
(37.2521°N, 76.9605°W)
Time: 07:51:55
(UTC-04:00)

ISS - Visible Passes

Search period start: 21 July 2018 00:00
Search period end: 31 July 2018 00:00
Orbit: 402 x 408 km, 51.6° (Epoch: 21 July)

Date Brightness Start Highest point End Pass type
(mag) Time Alt. Az. Time Alt. Az. Time Alt. Az.
21 Jul -0.8 03:13:59 10° NNW 03:16:19 18° NNE 03:18:39 10° ENE visible
21 Jul -3.9 04:49:48 10° WNW 04:53:03 60° SW 04:56:18 10° SE visible
21 Jul -3.2 21:28:04 10° WSW 21:31:17 60° NW 21:34:32 10° NE visible
21 Jul -0.3 23:06:58 10° NW 23:08:21 12° NNW 23:09:43 10° N visible
22 Jul -0.4 02:22:26 10° N 02:23:55 12° NNE 02:25:23 10° NE visible
22 Jul -3.4 03:57:40 10° NW 04:00:56 64° NE 04:04:11 10° ESE visible
22 Jul -0.7 22:13:40 10° WNW 22:15:55 17° NNW 22:18:11 10° NNE visible
23 Jul -1.4 21:20:45 10° W 21:23:34 26° NNW 21:26:24 10° NNE visible
24 Jul -0.3 22:07:35 10° NNW 22:08:26 11° NNW 22:09:16 10° N visible
25 Jul -0.7 21:13:57 10° WNW 21:15:56 15° NNW 21:17:56 10° NNE visible
28 Jul -0.5 23:30:17 10° N 23:30:57 11° N 23:30:57 11° N visible
30 Jul -0.8 23:21:21 10° NNW 23:22:24 15° N 23:22:24 15° N visible
